Regional Weather Roundup
Issued by NWS

Home | Current Version | Previous Version | Graphics & Text | Print | Product List | Glossary Off
Versions: 1 2 3 4 5 6 7 8 9 10 11 12 13 14 15 16 17 18 19 20 21 22 23 24 25 26 27 28 29 30 31 32 33 34 35 36 37 38 39 40 41 42 43 44 45 46 47 48 49 50

084
ASUS43 KTOP 260359
RWRKS

WEATHER ROUNDUP FOR KANSAS
NATIONAL WEATHER SERVICE GOODLAND KS
1100 PM CDT MON JUL 25 2016

NOTE:  "FAIR" INDICATES FEW OR NO CLOUDS BELOW 12,000 FEET WITH NO
SIGNIFICANT WEATHER AND/OR OBSTRUCTIONS TO VISIBILITY.

KSZ001>006-013>018-027>032-041>047-260500-
NORTHWEST KANSAS

CITY           SKY/WX    TMP DP  RH WIND       PRES   REMARKS
GOODLAND       CLOUDY    72  65  78 S8        30.16R
HAYS           CLEAR     72  61  68 E6        30.10R
HILL CITY      CLEAR     72  66  81 SE3       30.12R
RUSSELL        CLEAR     71  66  84 E8        30.08R
$$

KSZ061>065-074>080-084>089-260500-
SOUTHWEST KANSAS

CITY           SKY/WX    TMP DP  RH WIND       PRES   REMARKS
DODGE CITY     CLEAR     71  67  87 E5        30.11R
ELKHART          N/A     74  65  74 E7          N/A
GARDEN CITY    CLOUDY    72  67  84 E7        30.14R
GREAT BEND     CLEAR     73  63  68 E8        30.08R
LIBERAL        CLEAR     79  64  61 E7        30.14R
$$

KSZ066>073-081>083-090>101-260500-
SOUTHEAST KANSAS

CITY           SKY/WX    TMP DP  RH WIND       PRES   REMARKS
CHANUTE        MOCLDY    77  73  87 NE6       30.04S
COFFEYVILLE    MOCLDY    76  73  91 NE5       30.02S
HUTCHINSON     CLEAR     74  70  87 E8        30.06S
NEWTON         CLEAR     73  71  93 E3        30.07S
PARSONS          N/A    N/A N/A N/A MISG      30.04S
WICHITA INTL   PTCLDY    78  71  79 E10       30.04S
WICHITA JABRA  CLEAR     74  72  93 E6        30.05S
WINFIELD       PTCLDY    77  72  84 NE7       30.04R
$$

KSZ007>012-019>026-033>040-048>060-102>105-260500-
NORTHEAST KANSAS

CITY           SKY/WX    TMP DP  RH WIND       PRES   REMARKS
CONCORDIA      CLEAR     69  66  90 SE6       30.08R
EMPORIA        CLOUDY    74  71  91 N5        30.06S
LAWRENCE       CLOUDY    75  68  78 NE6       30.05F
MANHATTAN      PTCLDY    73  67  81 E5        30.06S
OLATHE IND     PTCLDY    77  68  73 E5        30.07S
OLATHE EXE     PTCLDY    76  67  73 CALM      30.07S
SALINA         CLEAR     78  68  71 E5        30.06R
TOPEKA BILLARD MOCLDY    76  67  73 NE5       30.06S
TOPEKA FORBES  MOCLDY    77  68  73 E3        30.06S
$$




USA.gov is the U.S. government's official web portal to all federal, state and local government web resources and services.